Regional Weather Roundup
Issued by NWS State College, PA

Home | Current Version | Previous Version | Text Only | Print | Product List | Glossary On
Versions: 1 2 3 4 5 6 7 8 9 10 11 12 13 14 15 16 17 18 19 20 21 22 23 24 25 26 27 28 29 30 31 32 33 34 35 36 37 38 39 40 41 42 43 44 45 46 47 48 49 50
000
ASUS41 KCTP 040210
RWRCTP

REGIONAL WEATHER ROUNDUP
NATIONAL WEATHER SERVICE STATE COLLEGE PA
1000 PM EDT SUN MAY 03 2015

Note: "fair" indicates few or no clouds below 12,000 feet with no
significant weather and/or obstructions to visibility.

* = STATION THAT DOES NOT REPORT PRECIPITATION /E.G. RAIN...SNOW...ETC/
    THUNDER OR FOG.

PAZ002>004-007>009-013>016-020>023-029>032-040300-
WESTERN PENNSYLVANIA

CITY           SKY/WX    TMP DP  RH WIND       PRES   REMARKS
ERIE           MOCLDY    60  42  51 CALM      30.09R
MEADVILLE      MOCLDY    66  38  35 CALM      30.11R
FRANKLIN*      PTCLDY    63  37  39 S5        30.14R
NEW CASTLE     FAIR      66  43  43 CALM      30.13R
BEAVER COUNTY  NOT AVBL
BUTLER*        PTCLDY    63  39  42 S3        30.15R
PITTSBURGH INT MOCLDY    66  42  41 CALM      30.13R
PITTSBURGH     CLEAR     69  35  28 S6        30.13R
INDIANA*       MOCLDY    57  46  67 CALM      30.17R
LATROBE        CLEAR     59  45  58 CALM      30.15R
WASHINGTON CO* CLEAR     54  43  66 CALM      30.15R
$$

PAZ004>006-010>012-017>019-024>028-033>037-041-042-045-046-049>053-040300-
CENTRAL PENNSYLVANIA

CITY           SKY/WX    TMP DP  RH WIND       PRES   REMARKS
BRADFORD       PTCLDY    58  36  43 N5        30.15R
DUBOIS         CLEAR     64  37  36 SW3       30.14R
CLEARFIELD     CLEAR     64  40  41 SW3       30.14R
JOHNSTOWN      CLEAR     64  37  36 CALM      30.17R
ALTOONA        CLEAR     60  41  49 CALM      30.15R
STATE COLLEGE  NOT AVBL
WILLIAMSPORT   CLEAR     63  42  46 CALM      30.09R
SELINSGROVE    CLEAR     56  48  74 CALM      30.11R
FT INDIANTOWN  CLEAR     60  42  51 N1        30.12R
CAPITAL CITY   CLEAR     71  42  35 S7        30.11R
HARRISBURG     PTCLDY    69  47  45 SW9       30.11R
YORK           CLEAR     65  44  46 S6        30.12R
$$

PAZ038>040-043-044-047-048-054-055-060>062-067>071-040300-
EASTERN PENNSYLVANIA

CITY           SKY/WX    TMP DP  RH WIND       PRES   REMARKS
SCRANTON       CLEAR     65  33  30 SE3       30.11R
MOUNT POCONO   CLEAR     52  36  54 CALM      30.14R
ALLENTOWN      CLEAR     64  38  38 SW3       30.10R
QUAKERTOWN*    CLEAR     59  41  51 CALM      30.13R
READING        CLEAR     68  39  34 CALM      30.11R
LANCASTER      CLEAR     62  42  47 CALM      30.12R
COATESVILLE      N/A     66  41  39 SW5       30.15R
POTTSTOWN      CLEAR     61  42  49 CALM      30.13R
BLUE BELL      CLEAR     68  45  42 S6        30.13R
DOYLESTOWN     CLEAR     63  42  46 CALM      30.12R
WILLOW GROVE   NOT AVBL
NORTH PHILA    CLEAR     67  35  30 CALM      30.15R
PHILADELPHIA   FAIR      67  41  38 SW5       30.14R
$$



USA.gov is the U.S. government's official web portal to all federal, state and local government web resources and services.